Monterey, CA

3:19 PM PST on December 18, 2017 (GMT -0800)
Monterey Peninsula

Weather History for KMRY - April, 2013

Change the Weather History Date:

Monday, April 29, 2013

  Actual Average Record
Temperature  
Mean Temperature 60 °F 55 °F  
Max Temperature 73 °F 62 °F 82 °F (2014)
Min Temperature 46 °F 48 °F 41 °F (2011)
Degree Days  
Heating Degree Days 5    
Month to date heating degree days 287  
Since 1 July heating degree days 2937  
Cooling Degree Days 0    
Month to date cooling degree days 0  
Year to date cooling degree days 0  
Growing Degree Days 9 (Base 50)    
Moisture  
Dew Point 48 °F    
Average Humidity 69    
Maximum Humidity 93    
Minimum Humidity 44    
Precipitation  
Precipitation 0.00 in - 0.10 in (2002)
Month to date precipitation 0.30  
Year to date precipitation 3.09  
Since 1 July precipitation 11.33  
Sea Level Pressure  
Sea Level Pressure 29.91 in    
Wind  
Wind Speed 5 mph (WSW)    
Max Wind Speed 14 mph    
Max Gust Speed 29 mph    
Visibility 9 miles    
Events      
T = Trace of Precipitation, MM = Missing Value Source: NWS Daily Summary

Daily Weather History Graph

Daily Weather History Graph

Search for Another Location

Airport or City:

Trip Planner

Search our weather history database for the weather conditions in past years. The results will help you decide how hot, cold, wet, or windy it might be!

Date:

Astronomy

Apr. 29, 2013 Rise Set
Actual Time 6:15 AM PDT 7:54 PM PDT
Civil Twilight 5:48 AM PDT 8:21 PM PDT
Nautical Twilight 5:14 AM PDT 8:55 PM PDT
Astronomical Twilight 4:39 AM PDT 9:30 PM PDT
Moon No Moon Rise 9:44 AM PDT (4/29)
Length of Visible Light 14h 33m
Length of Day
13h 38m
Waning Gibbous, 79% of the Moon is Illuminated
Apr 29
Waning Gibbous
May 2
Last Quarter
May 9
New
May 17
First Quarter
May 24
Full

Hourly Weather History & Observations

Time (PDT) Temp. Dew Point Humidity Pressure Visibility Wind Dir Wind Speed Gust Speed Precip Events Conditions
12:54 AM 51.1 °F 46.9 °F 86% 29.94 in 9.0 mi East 4.6 mph - N/A   Clear
1:54 AM 52.0 °F 48.0 °F 86% 29.95 in 8.0 mi Calm Calm - N/A   Clear
2:54 AM 48.0 °F 44.1 °F 86% 29.93 in 9.0 mi Calm Calm - N/A   Clear
3:54 AM 48.0 °F 45.0 °F 89% 29.92 in 10.0 mi Calm Calm - N/A   Clear
4:54 AM 50.0 °F 45.0 °F 83% 29.92 in 10.0 mi Calm Calm - N/A   Clear
5:18 AM 48.2 °F 44.6 °F 87% 29.89 in 10.0 mi SE 3.5 mph - N/A   Scattered Clouds
5:54 AM 48.9 °F 46.0 °F 90% 29.91 in 9.0 mi SE 5.8 mph - N/A   Clear
6:54 AM 50.0 °F 46.0 °F 86% 29.92 in 7.0 mi Calm Calm - N/A   Clear
7:54 AM 55.0 °F 48.9 °F 80% 29.93 in 8.0 mi Calm Calm - N/A   Clear
8:54 AM 57.9 °F 48.9 °F 72% 29.94 in 7.0 mi Calm Calm - N/A   Clear
9:54 AM 66.0 °F 51.1 °F 59% 29.94 in 10.0 mi Calm Calm - N/A   Clear
10:54 AM 61.0 °F 51.1 °F 70% 29.94 in 7.0 mi NW 5.8 mph - N/A   Clear
11:54 AM 63.0 °F 51.1 °F 65% 29.95 in 10.0 mi NW 8.1 mph - N/A   Clear
12:54 PM 66.0 °F 51.1 °F 59% 29.94 in 9.0 mi NNW 3.5 mph - N/A   Clear
1:54 PM 69.1 °F 50.0 °F 51% 29.92 in 10.0 mi North 8.1 mph - N/A   Clear
2:54 PM 70.0 °F 46.9 °F 44% 29.91 in 10.0 mi WNW 8.1 mph - N/A   Clear
3:54 PM 70.0 °F 46.9 °F 44% 29.90 in 10.0 mi WSW 9.2 mph - N/A   Clear
4:54 PM 66.9 °F 46.9 °F 49% 29.88 in 10.0 mi Variable 6.9 mph - N/A   Clear
5:54 PM 64.9 °F 48.0 °F 54% 29.87 in 10.0 mi West 8.1 mph - N/A   Clear
6:54 PM 61.0 °F 48.0 °F 62% 29.87 in 10.0 mi West 9.2 mph - N/A   Clear
7:54 PM 57.0 °F 46.9 °F 69% 29.87 in 9.0 mi SW 9.2 mph - N/A   Clear
8:54 PM 55.9 °F 46.9 °F 72% 29.88 in 10.0 mi SSW 8.1 mph - N/A   Clear
9:54 PM 55.0 °F 46.9 °F 74% 29.88 in 10.0 mi South 8.1 mph - N/A   Clear
10:54 PM 54.0 °F 46.9 °F 77% 29.88 in 9.0 mi South 8.1 mph - N/A   Clear
11:54 PM 53.1 °F 46.9 °F 80% 29.88 in 9.0 mi SSW 8.1 mph - N/A   Clear